WJA2563 MZBZ-CYYZ

Flight info

Callsign WJA2563
Flight time N/A
Altitude 31000
Route LITRA1D LITRA UR899 CTM UG765 CZM UB881 CUN UM219 MYDIA M219 CIGAR/N0474F330 DCT VAD DCT FLYYN DCT OXMAN LINNG3
Aircraft B738/M-SDE2E3FGHIRWXY/LB1

Departure

Time 2026-05-05 12:05
Airport Philip S. W. Goldson International Airport (MZBZ)

Arrival

Time N/A
Airport Toronto Pearson International Airport (CYYZ)
Time Latitude Longitude Altitude Speed Heading
2026-05-05 11:40 17.53681 -88.30779 34 ft 0 kts 161°
2026-05-05 11:56 17.53687 -88.30781 35 ft 2 kts 163°
2026-05-05 11:56 17.53705 -88.30786 33 ft 2 kts 166°
2026-05-05 11:56 17.53721 -88.30789 32 ft 3 kts 185°
2026-05-05 11:57 17.53737 -88.30784 33 ft 3 kts 234°
2026-05-05 11:57 17.53745 -88.30767 35 ft 2 kts 255°
2026-05-05 11:57 17.53746 -88.30762 35 ft 1 kts 255°
2026-05-05 12:00 17.53743 -88.30773 35 ft 4 kts 256°
2026-05-05 12:01 17.53733 -88.30819 35 ft 9 kts 256°
2026-05-05 12:01 17.53715 -88.30897 35 ft 12 kts 256°
2026-05-05 12:01 17.53699 -88.30991 35 ft 14 kts 257°
2026-05-05 12:01 17.53676 -88.31096 32 ft 15 kts 257°
2026-05-05 12:02 17.53652 -88.31206 34 ft 15 kts 257°
2026-05-05 12:02 17.53628 -88.31313 34 ft 15 kts 257°
2026-05-05 12:02 17.53606 -88.31414 34 ft 14 kts 257°
2026-05-05 12:02 17.53585 -88.31512 34 ft 13 kts 257°
2026-05-05 12:03 17.53565 -88.31606 34 ft 13 kts 257°
2026-05-05 12:03 17.53542 -88.31710 35 ft 15 kts 259°
2026-05-05 12:03 17.53593 -88.31773 35 ft 12 kts 345°
2026-05-05 12:03 17.53672 -88.31793 34 ft 10 kts 347°
2026-05-05 12:04 17.53699 -88.31776 33 ft 2 kts 73°
2026-05-05 12:04 17.53704 -88.31753 33 ft 8 kts 77°
2026-05-05 12:04 17.53761 -88.31490 32 ft 71 kts 77°
2026-05-05 12:04 17.53922 -88.30763 35 ft 131 kts 77°
2026-05-05 12:05 17.54165 -88.29651 94 ft 175 kts 76°
2026-05-05 12:05 17.54479 -88.28414 743 ft 178 kts 75°
2026-05-05 12:05 17.54813 -88.27151 1446 ft 179 kts 79°
2026-05-05 12:05 17.55058 -88.25881 2025 ft 190 kts 71°
2026-05-05 12:06 17.55964 -88.24759 2239 ft 218 kts 37°
2026-05-05 12:06 17.57321 -88.23884 2418 ft 240 kts 20°
2026-05-05 12:06 17.59010 -88.23710 2884 ft 251 kts
2026-05-05 12:06 17.60840 -88.23716 3192 ft 272 kts
2026-05-05 12:07 17.62758 -88.23689 3855 ft 277 kts
2026-05-05 12:07 17.64690 -88.23640 4614 ft 279 kts
2026-05-05 12:07 17.66641 -88.23575 5304 ft 282 kts
2026-05-05 12:07 17.68609 -88.23503 5797 ft 284 kts
2026-05-05 12:08 17.70572 -88.23429 6024 ft 284 kts
2026-05-05 12:08 17.72569 -88.23532 6226 ft 289 kts 352°
2026-05-05 12:08 17.74551 -88.23892 6941 ft 288 kts 350°
2026-05-05 12:08 17.76500 -88.24290 7635 ft 289 kts 349°
2026-05-05 12:09 17.78485 -88.24701 8304 ft 292 kts 350°
2026-05-05 12:09 17.80487 -88.25106 8979 ft 294 kts 350°
2026-05-05 12:09 17.82504 -88.25505 9653 ft 296 kts 350°
2026-05-05 12:09 17.84550 -88.25905 10233 ft 301 kts 350°
2026-05-05 12:10 17.86682 -88.26316 10396 ft 322 kts 351°
2026-05-05 12:10 17.88957 -88.26750 10549 ft 341 kts 350°
2026-05-05 12:10 17.91352 -88.27204 10696 ft 358 kts 350°
2026-05-05 12:10 17.93846 -88.27677 11021 ft 368 kts 350°
2026-05-05 12:11 17.96381 -88.28157 11560 ft 370 kts 350°
2026-05-05 12:11 17.98917 -88.28637 12190 ft 370 kts 350°
2026-05-05 12:11 18.01453 -88.29117 12756 ft 372 kts 350°
2026-05-05 12:11 18.04015 -88.29598 13256 ft 375 kts 350°
2026-05-05 12:12 18.06561 -88.30081 13782 ft 378 kts 349°
2026-05-05 12:12 18.09159 -88.30576 14255 ft 380 kts 349°
2026-05-05 12:12 18.11764 -88.31070 14746 ft 381 kts 349°
2026-05-05 12:12 18.14383 -88.31567 15218 ft 383 kts 349°
2026-05-05 12:13 18.17012 -88.32063 15697 ft 385 kts 349°
2026-05-05 12:13 18.19658 -88.32564 16162 ft 386 kts 349°
2026-05-05 12:13 18.22331 -88.32969 16609 ft 389 kts 355°
2026-05-05 12:13 18.25036 -88.33074 17057 ft 391 kts 359°
2026-05-05 12:14 18.27760 -88.33073 17500 ft 392 kts 360°
2026-05-05 12:14 18.30496 -88.33062 17935 ft 395 kts 359°
2026-05-05 12:14 18.33217 -88.33072 18339 ft 396 kts 359°
2026-05-05 12:14 18.36017 -88.33106 18701 ft 398 kts 359°
2026-05-05 12:15 18.38764 -88.33154 19045 ft 401 kts 359°
2026-05-05 12:15 18.41560 -88.33210 19387 ft 403 kts 359°
2026-05-05 12:15 18.44372 -88.33268 19721 ft 405 kts 359°
2026-05-05 12:15 18.47197 -88.33312 20074 ft 407 kts
2026-05-05 12:16 18.50013 -88.32934 20388 ft 410 kts 14°
2026-05-05 12:16 18.52721 -88.31976 20727 ft 412 kts 23°
2026-05-05 12:16 18.55246 -88.30505 21054 ft 415 kts 32°
2026-05-05 12:16 18.57653 -88.28817 21391 ft 417 kts 33°
2026-05-05 12:17 18.60059 -88.27092 21695 ft 419 kts 33°
2026-05-05 12:17 18.62442 -88.25380 22009 ft 421 kts 33°
2026-05-05 12:17 18.64873 -88.23641 22334 ft 422 kts 33°
2026-05-05 12:17 18.67312 -88.21906 22651 ft 424 kts 33°
2026-05-05 12:18 18.69763 -88.20172 22949 ft 426 kts 33°
2026-05-05 12:18 18.72234 -88.18429 23247 ft 427 kts 33°
2026-05-05 12:18 18.74718 -88.16681 23531 ft 429 kts 33°
2026-05-05 12:18 18.77211 -88.14927 23779 ft 431 kts 33°
2026-05-05 12:19 18.79708 -88.13170 24040 ft 432 kts 33°
2026-05-05 12:19 18.82217 -88.11404 24286 ft 433 kts 33°
2026-05-05 12:19 18.84725 -88.09638 24521 ft 434 kts 33°
2026-05-05 12:19 18.87251 -88.07860 24746 ft 437 kts 33°
2026-05-05 12:20 18.89784 -88.06075 24955 ft 439 kts 32°
2026-05-05 12:20 18.92325 -88.04284 25178 ft 440 kts 32°
2026-05-05 12:20 18.94875 -88.02486 25421 ft 441 kts 32°
2026-05-05 12:20 18.97437 -88.00678 25662 ft 442 kts 32°
2026-05-05 12:21 19.00000 -87.98869 25891 ft 444 kts 32°
2026-05-05 12:21 19.02541 -87.97074 26108 ft 445 kts 32°
2026-05-05 12:21 19.05131 -87.95245 26335 ft 447 kts 32°
2026-05-05 12:21 19.07718 -87.93417 26543 ft 448 kts 32°
2026-05-05 12:22 19.10315 -87.91581 26754 ft 449 kts 32°
2026-05-05 12:22 19.12919 -87.89740 26957 ft 451 kts 32°
2026-05-05 12:22 19.15534 -87.87890 27151 ft 453 kts 32°
2026-05-05 12:22 19.18155 -87.86035 27364 ft 454 kts 32°
2026-05-05 12:23 19.20780 -87.84176 27598 ft 454 kts 32°
2026-05-05 12:23 19.23408 -87.82315 27891 ft 453 kts 32°
2026-05-05 12:23 19.25996 -87.80480 28206 ft 452 kts 32°
2026-05-05 12:23 19.28603 -87.78632 28513 ft 451 kts 32°
2026-05-05 12:24 19.31209 -87.76785 28792 ft 451 kts 32°
2026-05-05 12:24 19.33817 -87.74935 29082 ft 450 kts 32°
2026-05-05 12:24 19.36416 -87.73090 29390 ft 450 kts 32°
2026-05-05 12:24 19.38141 -87.71865 29603 ft 449 kts 32°
2026-05-05 12:25 19.40744 -87.70017 29913 ft 448 kts 32°
2026-05-05 12:25 19.43335 -87.68176 30215 ft 447 kts 32°
2026-05-05 12:25 19.45914 -87.66342 30467 ft 447 kts 32°
2026-05-05 12:25 19.48501 -87.64504 30653 ft 448 kts 32°
2026-05-05 12:26 19.51091 -87.62661 30892 ft 448 kts 32°
2026-05-05 12:26 19.53681 -87.60818 30954 ft 450 kts 32°
2026-05-05 12:26 19.58847 -87.57140 30957 ft 447 kts 32°
2026-05-05 12:27 19.64000 -87.53464 30972 ft 445 kts 32°
2026-05-05 12:27 19.69131 -87.49799 30969 ft 445 kts 32°
2026-05-05 12:28 19.74271 -87.46125 30971 ft 445 kts 32°
2026-05-05 12:28 19.79403 -87.42434 30978 ft 445 kts 32°
2026-05-05 12:29 19.84520 -87.38731 30972 ft 445 kts 32°
2026-05-05 12:29 19.89671 -87.35064 30970 ft 445 kts 31°
2026-05-05 12:30 19.94791 -87.31419 30971 ft 445 kts 31°
2026-05-05 12:30 19.99932 -87.27749 30971 ft 445 kts 31°
2026-05-05 12:31 20.05075 -87.24070 30973 ft 445 kts 31°
2026-05-05 12:31 20.10224 -87.20383 30973 ft 445 kts 31°
2026-05-05 12:32 20.15362 -87.16703 30976 ft 445 kts 31°
2026-05-05 12:32 20.20489 -87.13020 30977 ft 445 kts 31°
2026-05-05 12:33 20.25614 -87.09326 30978 ft 444 kts 31°
2026-05-05 12:33 20.30730 -87.05634 30977 ft 444 kts 31°
2026-05-05 12:34 20.35810 -87.01967 30977 ft 443 kts 31°
2026-05-05 12:34 20.40913 -86.98280 30982 ft 443 kts 31°
2026-05-05 12:35 20.46016 -86.94591 30990 ft 443 kts 31°
2026-05-05 12:35 20.51440 -86.91623 30990 ft 436 kts 15°
2026-05-05 12:36 20.57359 -86.90403 30990 ft 432 kts
2026-05-05 12:36 20.63351 -86.89850 30984 ft 432 kts
2026-05-05 12:37 20.69347 -86.89259 30982 ft 433 kts
2026-05-05 12:37 20.75352 -86.88632 30982 ft 434 kts
2026-05-05 12:38 20.81368 -86.88016 30991 ft 434 kts
2026-05-05 12:38 20.87347 -86.87421 30983 ft 434 kts
2026-05-05 12:39 20.93367 -86.86819 30982 ft 434 kts
2026-05-05 12:39 20.99394 -86.86213 30982 ft 434 kts
2026-05-05 12:40 21.05395 -86.85372 30984 ft 436 kts
2026-05-05 12:40 21.11326 -86.83985 30996 ft 436 kts 10°
2026-05-05 12:41 21.17260 -86.82568 30991 ft 436 kts
2026-05-05 12:41 21.23149 -86.81210 30988 ft 435 kts
2026-05-05 12:42 21.29069 -86.79864 30988 ft 434 kts
2026-05-05 12:42 21.34989 -86.78518 30989 ft 434 kts
2026-05-05 12:43 21.40897 -86.77172 30988 ft 434 kts
2026-05-05 12:43 21.46795 -86.75825 30989 ft 433 kts
2026-05-05 12:44 21.52706 -86.74469 30991 ft 433 kts
2026-05-05 12:44 21.58563 -86.73123 30992 ft 433 kts
2026-05-05 12:45 21.64465 -86.71767 30993 ft 433 kts
2026-05-05 12:45 21.70367 -86.70410 30992 ft 434 kts
2026-05-05 12:46 21.76270 -86.69051 30998 ft 434 kts
2026-05-05 12:46 21.82181 -86.67689 30994 ft 434 kts
2026-05-05 12:47 21.88065 -86.66333 30992 ft 434 kts
2026-05-05 12:47 21.93981 -86.64970 30994 ft 434 kts
2026-05-05 12:48 21.99889 -86.63606 30997 ft 434 kts
2026-05-05 12:48 22.05807 -86.62239 30997 ft 434 kts
2026-05-05 12:49 22.11727 -86.60870 31005 ft 434 kts
2026-05-05 12:49 22.17638 -86.59502 30999 ft 434 kts
2026-05-05 12:50 22.23517 -86.58140 31001 ft 434 kts
2026-05-05 12:50 22.29433 -86.56768 30999 ft 434 kts
2026-05-05 12:51 22.35356 -86.55393 30999 ft 434 kts
2026-05-05 12:51 22.41241 -86.54027 31000 ft 434 kts
2026-05-05 12:52 22.47158 -86.52654 31005 ft 434 kts
2026-05-05 12:52 22.53066 -86.51282 31002 ft 434 kts
2026-05-05 12:53 22.58932 -86.49917 31003 ft 434 kts
2026-05-05 12:53 22.64830 -86.48544 31005 ft 434 kts
2026-05-05 12:54 22.73686 -86.46480 31008 ft 433 kts
2026-05-05 12:55 22.79579 -86.45106 31012 ft 433 kts
2026-05-05 12:55 22.85477 -86.43731 31006 ft 433 kts
2026-05-05 12:56 22.91365 -86.42357 31006 ft 433 kts
2026-05-05 12:56 22.97231 -86.40987 31009 ft 432 kts
2026-05-05 12:57 23.03111 -86.39612 31008 ft 432 kts
2026-05-05 12:57 23.08982 -86.38237 31024 ft 432 kts
2026-05-05 12:58 23.14862 -86.36860 31015 ft 432 kts
2026-05-05 12:58 23.20743 -86.35480 31016 ft 432 kts
2026-05-05 12:59 23.26613 -86.34102 31011 ft 431 kts
2026-05-05 12:59 23.32446 -86.32732 31017 ft 431 kts
2026-05-05 13:00 23.41243 -86.30665 31029 ft 431 kts
2026-05-05 13:01 23.52956 -86.27907 31018 ft 430 kts
2026-05-05 13:01 23.58811 -86.26525 31020 ft 430 kts
2026-05-05 13:02 23.64631 -86.25152 31019 ft 430 kts
2026-05-05 13:02 23.70481 -86.23769 31036 ft 429 kts
2026-05-05 13:03 23.76326 -86.22387 31022 ft 430 kts
2026-05-05 13:03 23.82178 -86.21002 31024 ft 430 kts
2026-05-05 13:04 23.87985 -86.19626 31020 ft 429 kts
2026-05-05 13:04 23.93830 -86.18239 31026 ft 430 kts
2026-05-05 13:05 23.99674 -86.16852 31023 ft 430 kts
2026-05-05 13:05 24.05443 -86.15007 31032 ft 437 kts 19°
2026-05-05 13:06 24.10815 -86.11767 31029 ft 442 kts 24°
2026-05-05 13:06 24.16114 -86.08419 31026 ft 442 kts 24°
2026-05-05 13:07 24.21452 -86.05076 31026 ft 441 kts 24°
2026-05-05 13:07 24.26800 -86.01752 31026 ft 441 kts 24°
2026-05-05 13:08 24.32140 -85.98440 31029 ft 441 kts 24°
2026-05-05 13:08 24.37488 -85.95119 31036 ft 441 kts 24°
2026-05-05 13:09 24.42830 -85.91799 31033 ft 441 kts 24°
2026-05-05 13:09 24.48139 -85.88494 31032 ft 441 kts 24°
2026-05-05 13:10 24.53482 -85.85166 31035 ft 441 kts 24°
2026-05-05 13:10 24.58818 -85.81838 31037 ft 441 kts 24°
2026-05-05 13:11 24.63254 -85.79069 31035 ft 441 kts 24°
2026-05-05 13:11 24.68587 -85.75738 31035 ft 441 kts 24°
2026-05-05 13:12 24.73921 -85.72402 31036 ft 441 kts 24°
2026-05-05 13:12 24.79259 -85.69060 31036 ft 441 kts 24°
2026-05-05 13:13 24.84596 -85.65716 31035 ft 441 kts 24°
2026-05-05 13:13 24.89895 -85.62393 31036 ft 441 kts 24°
2026-05-05 13:14 24.95230 -85.59043 31054 ft 441 kts 24°
2026-05-05 13:14 25.00564 -85.55690 31041 ft 441 kts 24°
2026-05-05 13:15 25.05901 -85.52331 31037 ft 441 kts 24°
2026-05-05 13:15 25.11244 -85.48966 31037 ft 441 kts 24°
2026-05-05 13:16 25.16542 -85.45620 31039 ft 441 kts 24°
2026-05-05 13:16 25.21872 -85.42248 31047 ft 441 kts 24°
2026-05-05 13:17 25.27202 -85.38874 31062 ft 441 kts 23°
2026-05-05 13:17 25.32550 -85.35649 31037 ft 435 kts 16°
2026-05-05 13:18 25.38297 -85.33970 31038 ft 422 kts
2026-05-05 13:18 25.44137 -85.33407 31036 ft 420 kts 360°
2026-05-05 13:19 25.49961 -85.32855 31046 ft 420 kts 360°
2026-05-05 13:19 25.55793 -85.32273 31046 ft 420 kts
2026-05-05 13:20 25.61594 -85.31678 31048 ft 420 kts 360°
2026-05-05 13:20 25.67419 -85.31078 31045 ft 420 kts 360°
2026-05-05 13:21 25.73244 -85.30477 31045 ft 420 kts 360°
2026-05-05 13:21 25.79059 -85.29877 31045 ft 419 kts 360°
2026-05-05 13:22 25.84839 -85.29280 31048 ft 419 kts 360°
2026-05-05 13:22 25.90645 -85.28680 31059 ft 419 kts 359°
2026-05-05 13:23 25.96458 -85.28078 31044 ft 419 kts 359°
2026-05-05 13:23 26.02256 -85.27478 31043 ft 418 kts 359°
2026-05-05 13:24 26.08057 -85.26873 31046 ft 418 kts 359°
2026-05-05 13:24 26.13849 -85.26267 31046 ft 418 kts 360°
2026-05-05 13:25 26.19641 -85.25659 31067 ft 418 kts 359°
2026-05-05 13:25 26.25435 -85.25052 31055 ft 418 kts 359°
2026-05-05 13:26 26.31236 -85.24443 31048 ft 419 kts 359°
2026-05-05 13:26 26.37041 -85.23806 31048 ft 420 kts
2026-05-05 13:27 26.42740 -85.22013 31057 ft 430 kts 13°
2026-05-05 13:27 26.48326 -85.19699 31050 ft 431 kts 13°
2026-05-05 13:28 26.53953 -85.17377 31058 ft 431 kts 13°
2026-05-05 13:28 26.59593 -85.15076 31050 ft 431 kts 13°
2026-05-05 13:29 26.65089 -85.12842 31049 ft 431 kts 13°
2026-05-05 13:29 26.70733 -85.10548 31048 ft 431 kts 13°
2026-05-05 13:30 26.76377 -85.08251 31052 ft 431 kts 13°
2026-05-05 13:30 26.82017 -85.05953 31058 ft 432 kts 13°
2026-05-05 13:31 26.87628 -85.03664 31061 ft 432 kts 13°
2026-05-05 13:31 26.93280 -85.01356 31051 ft 432 kts 13°
2026-05-05 13:32 26.98928 -84.99047 31053 ft 432 kts 13°
2026-05-05 13:32 27.04575 -84.96736 31055 ft 432 kts 13°
2026-05-05 13:33 27.10216 -84.94425 31073 ft 432 kts 12°
2026-05-05 13:33 27.15861 -84.92110 31060 ft 431 kts 12°
2026-05-05 13:34 27.21500 -84.89795 31051 ft 431 kts 12°
2026-05-05 13:34 27.27098 -84.87493 31054 ft 431 kts 12°
2026-05-05 13:35 27.32719 -84.85180 31054 ft 430 kts 12°
2026-05-05 13:35 27.38337 -84.82866 31083 ft 430 kts 12°
2026-05-05 13:36 27.43956 -84.80549 31060 ft 430 kts 12°
2026-05-05 13:36 27.49574 -84.78229 31050 ft 430 kts 12°
2026-05-05 13:37 27.55142 -84.75812 31057 ft 431 kts 14°
2026-05-05 13:37 27.60720 -84.73316 31054 ft 430 kts 14°
2026-05-05 13:38 27.66289 -84.70825 31061 ft 430 kts 14°
2026-05-05 13:38 27.71860 -84.68343 31062 ft 430 kts 13°
2026-05-05 13:39 27.77402 -84.65877 31062 ft 430 kts 13°
2026-05-05 13:39 27.82975 -84.63396 31055 ft 430 kts 13°
2026-05-05 13:40 27.88550 -84.60911 31058 ft 430 kts 13°
2026-05-05 13:40 27.94124 -84.58424 31060 ft 430 kts 13°
2026-05-05 13:41 27.99696 -84.55935 31065 ft 431 kts 13°
2026-05-05 13:41 28.05266 -84.53444 31061 ft 430 kts 13°
2026-05-05 13:42 28.10837 -84.50950 31060 ft 430 kts 13°
2026-05-05 13:42 28.16408 -84.48452 31062 ft 429 kts 13°
2026-05-05 13:43 28.21927 -84.45975 31063 ft 429 kts 13°
2026-05-05 13:43 28.27477 -84.43482 31084 ft 429 kts 13°
2026-05-05 13:44 28.33031 -84.40984 31072 ft 429 kts 13°
2026-05-05 13:44 28.38578 -84.38487 31067 ft 429 kts 13°
2026-05-05 13:45 28.44120 -84.35988 31070 ft 428 kts 13°
2026-05-05 13:45 28.49667 -84.33485 31070 ft 428 kts 13°
2026-05-05 13:46 28.55200 -84.30985 31108 ft 428 kts 13°
2026-05-05 13:46 28.60710 -84.28494 31083 ft 428 kts 13°
2026-05-05 13:47 28.66242 -84.25988 31069 ft 427 kts 13°
2026-05-05 13:47 28.71769 -84.23482 31069 ft 426 kts 13°
2026-05-05 13:48 28.77264 -84.20987 31077 ft 424 kts 13°
2026-05-05 13:48 28.82744 -84.18498 31075 ft 423 kts 13°
2026-05-05 13:49 28.88189 -84.16021 31086 ft 423 kts 13°
2026-05-05 13:49 28.93648 -84.13535 31077 ft 422 kts 13°
2026-05-05 13:50 28.99103 -84.11048 31075 ft 421 kts 13°
2026-05-05 13:50 29.04539 -84.08567 31080 ft 420 kts 13°
2026-05-05 13:51 29.09968 -84.06087 31081 ft 420 kts 13°
2026-05-05 13:51 29.15396 -84.03605 31085 ft 421 kts 12°
2026-05-05 13:52 29.20837 -84.01113 31083 ft 421 kts 12°
2026-05-05 13:52 29.26238 -83.98636 31081 ft 421 kts 12°
2026-05-05 13:53 29.31674 -83.96141 31084 ft 421 kts 12°
2026-05-05 13:53 29.37112 -83.93642 31082 ft 421 kts 12°
2026-05-05 13:54 29.42551 -83.91139 31102 ft 422 kts 12°
2026-05-05 13:54 29.48005 -83.88629 31091 ft 422 kts 12°
2026-05-05 13:55 29.53467 -83.86110 31090 ft 424 kts 12°
2026-05-05 13:55 29.58944 -83.83581 31085 ft 425 kts 12°
2026-05-05 13:56 29.64433 -83.81043 31085 ft 425 kts 12°
2026-05-05 13:56 29.69927 -83.78500 31112 ft 426 kts 12°
2026-05-05 13:57 29.75408 -83.75961 31096 ft 427 kts 12°
2026-05-05 13:57 29.80918 -83.73404 31089 ft 427 kts 13°
2026-05-05 13:58 29.86433 -83.70842 31094 ft 427 kts 13°
2026-05-05 13:58 29.91938 -83.68282 31097 ft 427 kts 13°
2026-05-05 13:59 29.99268 -83.64869 31108 ft 426 kts 13°
2026-05-05 14:00 30.07527 -83.61016 31093 ft 426 kts 13°
2026-05-05 14:00 30.13010 -83.58455 31101 ft 425 kts 13°
2026-05-05 14:01 30.18457 -83.55907 31092 ft 425 kts 13°
2026-05-05 14:01 30.23936 -83.53342 31122 ft 424 kts 13°
2026-05-05 14:02 30.29415 -83.50773 31106 ft 424 kts 13°
2026-05-05 14:02 30.34880 -83.48207 31097 ft 423 kts 13°
2026-05-05 14:03 30.40326 -83.45647 31093 ft 422 kts 13°
2026-05-05 14:03 30.45756 -83.43092 31098 ft 421 kts 13°
2026-05-05 14:04 30.51178 -83.40538 31100 ft 420 kts 13°
2026-05-05 14:04 30.56594 -83.37984 31107 ft 420 kts 13°
2026-05-05 14:05 30.61978 -83.35442 31107 ft 420 kts 13°
2026-05-05 14:05 30.67388 -83.32884 31111 ft 420 kts 13°
2026-05-05 14:06 30.72807 -83.30319 31111 ft 421 kts 13°
2026-05-05 14:06 30.78237 -83.27745 31125 ft 421 kts 13°
2026-05-05 14:07 30.83645 -83.25179 31120 ft 422 kts 13°
2026-05-05 14:07 30.89088 -83.22591 31108 ft 423 kts 13°
2026-05-05 14:08 30.94537 -83.19999 31091 ft 422 kts 13°
2026-05-05 14:08 31.00009 -83.17617 31092 ft 418 kts
2026-05-05 14:09 31.05530 -83.15488 31106 ft 416 kts
2026-05-05 14:09 31.11003 -83.13390 31101 ft 416 kts
2026-05-05 14:10 31.16477 -83.11260 31091 ft 413 kts
2026-05-05 14:10 31.21914 -83.09124 31092 ft 410 kts
2026-05-05 14:11 31.27318 -83.06995 31110 ft 408 kts
2026-05-05 14:11 31.32700 -83.04872 31118 ft 408 kts
2026-05-05 14:12 31.38056 -83.02758 31128 ft 408 kts
2026-05-05 14:12 31.43441 -83.00629 31129 ft 409 kts
2026-05-05 14:13 31.48836 -82.98493 31126 ft 409 kts
2026-05-05 14:13 31.54243 -82.96349 31128 ft 410 kts
2026-05-05 14:14 31.59657 -82.94200 31128 ft 411 kts
2026-05-05 14:14 31.65075 -82.92047 31117 ft 411 kts
2026-05-05 14:15 31.70494 -82.89889 31102 ft 411 kts
2026-05-05 14:15 31.75919 -82.87727 31108 ft 411 kts
2026-05-05 14:16 31.81293 -82.85583 31103 ft 411 kts
2026-05-05 14:16 31.86705 -82.83420 31111 ft 410 kts
2026-05-05 14:17 31.92113 -82.81258 31116 ft 410 kts
2026-05-05 14:17 31.97518 -82.79093 31106 ft 410 kts
2026-05-05 14:18 32.02914 -82.76930 31123 ft 408 kts
2026-05-05 14:18 32.08247 -82.74787 31104 ft 406 kts
2026-05-05 14:19 32.13581 -82.72641 31105 ft 403 kts
2026-05-05 14:19 32.18896 -82.70503 31109 ft 402 kts
2026-05-05 14:20 32.24181 -82.68374 31103 ft 401 kts
2026-05-05 14:20 32.29456 -82.66248 31105 ft 400 kts
2026-05-05 14:21 32.34707 -82.64128 31104 ft 401 kts
2026-05-05 14:21 32.39996 -82.61991 31107 ft 402 kts
2026-05-05 14:22 32.45316 -82.59839 31111 ft 404 kts
2026-05-05 14:22 32.50643 -82.57679 31105 ft 405 kts
2026-05-05 14:23 32.55966 -82.55517 31104 ft 406 kts
2026-05-05 14:23 32.61319 -82.53341 31099 ft 407 kts
2026-05-05 14:24 32.66673 -82.51161 31133 ft 406 kts
2026-05-05 14:24 32.72020 -82.48982 31110 ft 407 kts
2026-05-05 14:25 32.77384 -82.46793 31100 ft 407 kts
2026-05-05 14:25 32.82713 -82.44616 31103 ft 406 kts
2026-05-05 14:26 32.88057 -82.42430 31097 ft 406 kts
2026-05-05 14:26 32.93395 -82.40243 31139 ft 405 kts
2026-05-05 14:27 32.98740 -82.38053 31112 ft 406 kts
2026-05-05 14:27 33.04083 -82.35859 31103 ft 406 kts
2026-05-05 14:28 33.09431 -82.33660 31109 ft 406 kts
2026-05-05 14:28 33.14732 -82.31478 31102 ft 405 kts
2026-05-05 14:29 33.20068 -82.29279 31101 ft 405 kts
2026-05-05 14:29 33.25398 -82.27079 31108 ft 405 kts
2026-05-05 14:30 33.30726 -82.24878 31113 ft 405 kts
2026-05-05 14:30 33.36059 -82.22671 31104 ft 405 kts
2026-05-05 14:31 33.41392 -82.20461 31114 ft 405 kts
2026-05-05 14:31 33.46728 -82.18248 31127 ft 406 kts 10°
2026-05-05 14:32 33.52044 -82.16040 31120 ft 407 kts 10°
2026-05-05 14:32 33.57398 -82.13814 31118 ft 408 kts 10°
2026-05-05 14:33 33.62779 -82.11572 31107 ft 408 kts 10°
2026-05-05 14:33 33.68138 -82.09336 31113 ft 408 kts 10°
2026-05-05 14:34 33.73494 -82.07100 31119 ft 408 kts 10°
2026-05-05 14:34 33.78836 -82.04866 31105 ft 409 kts 10°
2026-05-05 14:35 33.84217 -82.02613 31102 ft 409 kts 10°
2026-05-05 14:35 33.89594 -82.00359 31105 ft 409 kts 10°
2026-05-05 14:36 33.94977 -81.98098 31101 ft 409 kts 10°
2026-05-05 14:36 34.00330 -81.95848 31114 ft 409 kts 10°
2026-05-05 14:37 34.05705 -81.93585 31110 ft 409 kts 10°
2026-05-05 14:37 34.11082 -81.91319 31109 ft 409 kts 10°
2026-05-05 14:38 34.16425 -81.89063 31111 ft 409 kts 10°
2026-05-05 14:38 34.21796 -81.86793 31149 ft 409 kts 10°
2026-05-05 14:39 34.27175 -81.84518 31137 ft 409 kts 11°
2026-05-05 14:39 34.32558 -81.82237 31138 ft 410 kts 11°
2026-05-05 14:40 34.37948 -81.79949 31137 ft 410 kts 11°
2026-05-05 14:40 34.43303 -81.77673 31133 ft 410 kts 11°
2026-05-05 14:41 34.48694 -81.75379 31114 ft 411 kts 11°
2026-05-05 14:41 34.54094 -81.73078 31114 ft 411 kts 11°
2026-05-05 14:42 34.59499 -81.70771 31105 ft 412 kts 11°
2026-05-05 14:42 34.64906 -81.68461 31102 ft 412 kts 11°
2026-05-05 14:43 34.70316 -81.66145 31102 ft 412 kts 11°
2026-05-05 14:43 34.75729 -81.63757 31101 ft 414 kts 12°
2026-05-05 14:44 34.81120 -81.61454 31108 ft 412 kts
2026-05-05 14:44 34.86588 -81.59240 31099 ft 415 kts 12°
2026-05-05 14:45 34.92043 -81.56864 31098 ft 416 kts 12°
2026-05-05 14:45 34.97470 -81.54493 31095 ft 417 kts 12°
2026-05-05 14:46 35.02949 -81.52116 31087 ft 417 kts 12°
2026-05-05 14:46 35.08429 -81.49745 31086 ft 417 kts 12°
2026-05-05 14:47 35.12973 -81.47778 31091 ft 417 kts 12°
2026-05-05 14:47 35.19342 -81.45019 31092 ft 416 kts 12°
2026-05-05 14:48 35.23893 -81.43045 31099 ft 417 kts 12°
2026-05-05 14:48 35.29369 -81.40665 31090 ft 417 kts 12°
2026-05-05 14:49 35.34844 -81.38283 31089 ft 417 kts 12°
2026-05-05 14:49 35.40281 -81.35914 31094 ft 417 kts 12°
2026-05-05 14:50 35.45764 -81.33521 31119 ft 418 kts 13°
2026-05-05 14:50 35.51249 -81.31125 31112 ft 419 kts 13°
2026-05-05 14:51 35.56749 -81.28718 31104 ft 419 kts 13°
2026-05-05 14:51 35.62255 -81.26304 31081 ft 421 kts 13°
2026-05-05 14:52 35.67785 -81.23877 31085 ft 421 kts 13°
2026-05-05 14:52 35.73282 -81.21460 31088 ft 422 kts 13°
2026-05-05 14:53 35.78816 -81.19023 31074 ft 422 kts 13°
2026-05-05 14:53 35.84350 -81.16583 31082 ft 422 kts 13°
2026-05-05 14:54 35.89889 -81.14137 31063 ft 422 kts 13°
2026-05-05 14:54 35.95425 -81.11688 31080 ft 423 kts 13°
2026-05-05 14:55 36.00936 -81.09247 31106 ft 422 kts 13°
2026-05-05 14:55 36.06468 -81.06793 31114 ft 422 kts 13°
2026-05-05 14:56 36.12033 -81.04484 31127 ft 418 kts
2026-05-05 14:56 36.17707 -81.02987 31165 ft 416 kts
2026-05-05 14:57 36.23406 -81.01607 31141 ft 417 kts
2026-05-05 14:57 36.29069 -81.00196 31134 ft 418 kts
2026-05-05 14:58 36.34783 -80.98734 31114 ft 418 kts
2026-05-05 14:58 36.40487 -80.97257 31097 ft 418 kts
2026-05-05 14:59 36.46193 -80.95775 31071 ft 420 kts
2026-05-05 14:59 36.51920 -80.94286 31059 ft 421 kts
2026-05-05 15:00 36.56696 -80.93042 31073 ft 422 kts
2026-05-05 15:00 36.63383 -80.91298 31086 ft 422 kts
2026-05-05 15:01 36.69147 -80.89792 31106 ft 424 kts
2026-05-05 15:01 36.74935 -80.88278 31115 ft 425 kts
2026-05-05 15:02 36.80725 -80.86761 31112 ft 425 kts
2026-05-05 15:02 36.86482 -80.85250 31107 ft 426 kts
2026-05-05 15:03 36.92289 -80.83724 31091 ft 426 kts
2026-05-05 15:03 36.98102 -80.82193 31070 ft 427 kts
2026-05-05 15:04 37.03919 -80.80659 31083 ft 427 kts
2026-05-05 15:04 37.09737 -80.79122 31088 ft 427 kts
2026-05-05 15:05 37.18473 -80.76810 31102 ft 428 kts
2026-05-05 15:06 37.24269 -80.75273 31081 ft 428 kts
2026-05-05 15:06 37.30110 -80.73722 31033 ft 428 kts
2026-05-05 15:07 37.35945 -80.72170 31047 ft 429 kts
2026-05-05 15:07 37.41796 -80.70612 31038 ft 429 kts
2026-05-05 15:08 37.47614 -80.69061 31020 ft 430 kts
2026-05-05 15:08 37.53488 -80.67491 31030 ft 430 kts
2026-05-05 15:09 37.59348 -80.65922 31046 ft 430 kts
2026-05-05 15:09 37.65221 -80.64348 31014 ft 431 kts
2026-05-05 15:10 37.71084 -80.62774 31029 ft 431 kts
2026-05-05 15:10 37.76919 -80.61204 31058 ft 432 kts
2026-05-05 15:11 37.82804 -80.59619 31077 ft 432 kts
2026-05-05 15:11 37.88692 -80.58030 31064 ft 432 kts
2026-05-05 15:12 37.94587 -80.56437 31061 ft 433 kts
2026-05-05 15:12 38.00439 -80.54853 31017 ft 432 kts
2026-05-05 15:13 38.06313 -80.53260 31015 ft 431 kts
2026-05-05 15:13 38.12178 -80.51666 31019 ft 431 kts
2026-05-05 15:14 38.18048 -80.50069 31009 ft 430 kts
2026-05-05 15:14 38.23909 -80.48472 31011 ft 430 kts
2026-05-05 15:15 38.29771 -80.46872 31020 ft 430 kts
2026-05-05 15:15 38.35623 -80.45272 31015 ft 431 kts
2026-05-05 15:16 38.41452 -80.43676 31005 ft 430 kts
2026-05-05 15:16 38.47310 -80.42069 31003 ft 430 kts
2026-05-05 15:17 38.53158 -80.40462 31015 ft 430 kts
2026-05-05 15:17 38.59024 -80.38848 30994 ft 430 kts
2026-05-05 15:18 38.64874 -80.37235 30979 ft 430 kts
2026-05-05 15:18 38.70699 -80.35626 30978 ft 430 kts
2026-05-05 15:19 38.76558 -80.34006 30977 ft 430 kts
2026-05-05 15:19 38.82416 -80.32383 30954 ft 429 kts
2026-05-05 15:20 38.88223 -80.30771 30965 ft 429 kts
2026-05-05 15:20 38.94054 -80.29150 30963 ft 428 kts
2026-05-05 15:21 38.99887 -80.27526 30949 ft 428 kts
2026-05-05 15:21 39.05716 -80.25900 30950 ft 428 kts
2026-05-05 15:22 39.11539 -80.24273 30946 ft 428 kts
2026-05-05 15:22 39.17322 -80.22655 30964 ft 428 kts
2026-05-05 15:23 39.23164 -80.21018 30960 ft 429 kts
2026-05-05 15:23 39.29015 -80.19374 30954 ft 431 kts
2026-05-05 15:24 39.34875 -80.17726 30956 ft 432 kts
2026-05-05 15:24 39.40757 -80.16068 30942 ft 432 kts
2026-05-05 15:25 39.46639 -80.14408 30936 ft 432 kts
2026-05-05 15:25 39.52524 -80.12743 30931 ft 433 kts
2026-05-05 15:26 39.58406 -80.11077 30936 ft 432 kts
2026-05-05 15:26 39.64248 -80.09417 30944 ft 432 kts
2026-05-05 15:27 39.70129 -80.07745 30936 ft 432 kts
2026-05-05 15:27 39.76005 -80.06073 30942 ft 432 kts
2026-05-05 15:28 39.81885 -80.04397 30929 ft 432 kts
2026-05-05 15:28 39.87760 -80.02718 30922 ft 432 kts
2026-05-05 15:29 39.93630 -80.01037 30906 ft 431 kts
2026-05-05 15:29 39.99485 -79.99358 30895 ft 430 kts
2026-05-05 15:30 40.05341 -79.97675 30900 ft 430 kts
2026-05-05 15:30 40.11133 -79.96008 30876 ft 428 kts
2026-05-05 15:31 40.16943 -79.94333 30875 ft 426 kts
2026-05-05 15:31 40.22733 -79.92661 30871 ft 425 kts
2026-05-05 15:32 40.28508 -79.90991 30867 ft 425 kts
2026-05-05 15:32 40.34279 -79.89320 30873 ft 425 kts
2026-05-05 15:33 40.39079 -79.87928 30865 ft 425 kts
2026-05-05 15:33 40.44851 -79.86250 30871 ft 425 kts
2026-05-05 15:34 40.50636 -79.84566 30878 ft 427 kts
2026-05-05 15:34 40.56447 -79.82871 30868 ft 427 kts
2026-05-05 15:35 40.62258 -79.81173 30868 ft 427 kts
2026-05-05 15:35 40.69012 -79.79194 30872 ft 428 kts
2026-05-05 15:36 40.73846 -79.77784 30858 ft 429 kts
2026-05-05 15:36 40.79676 -79.75925 30857 ft 428 kts
2026-05-05 15:37 40.85543 -79.74394 30856 ft 432 kts
2026-05-05 15:37 40.91430 -79.72654 30857 ft 435 kts
2026-05-05 15:38 40.97346 -79.70873 30853 ft 436 kts
2026-05-05 15:38 41.03243 -79.69111 30849 ft 437 kts
2026-05-05 15:39 41.09201 -79.67340 30837 ft 438 kts
2026-05-05 15:39 41.15154 -79.65571 30837 ft 438 kts
2026-05-05 15:40 41.21068 -79.63811 30833 ft 438 kts
2026-05-05 15:40 41.27004 -79.62041 30833 ft 437 kts
2026-05-05 15:41 41.32928 -79.60271 30833 ft 436 kts
2026-05-05 15:41 41.38860 -79.58496 30824 ft 436 kts
2026-05-05 15:42 41.44785 -79.56718 30821 ft 435 kts
2026-05-05 15:42 41.50682 -79.54946 30829 ft 434 kts
2026-05-05 15:43 41.56560 -79.53178 30832 ft 436 kts
2026-05-05 15:43 41.62492 -79.51391 30818 ft 438 kts
2026-05-05 15:44 41.68442 -79.49593 30818 ft 439 kts
2026-05-05 15:44 41.74404 -79.47788 30813 ft 440 kts
2026-05-05 15:45 41.80386 -79.45974 30811 ft 441 kts
2026-05-05 15:45 41.86346 -79.44163 30811 ft 441 kts
2026-05-05 15:46 41.92340 -79.42337 30820 ft 441 kts
2026-05-05 15:46 41.98252 -79.40510 30677 ft 428 kts
2026-05-05 15:46 42.01139 -79.39630 30385 ft 421 kts
2026-05-05 15:47 42.03978 -79.38772 30032 ft 417 kts
2026-05-05 15:47 42.05853 -79.38204 29770 ft 415 kts
2026-05-05 15:47 42.09603 -79.37059 29221 ft 410 kts
2026-05-05 15:47 42.12349 -79.36320 28861 ft 402 kts 360°
2026-05-05 15:48 42.15110 -79.35971 28456 ft 394 kts 355°
2026-05-05 15:48 42.17835 -79.35801 28067 ft 389 kts 354°
2026-05-05 15:48 42.20526 -79.35673 27653 ft 386 kts 354°
2026-05-05 15:48 42.23206 -79.35533 27254 ft 384 kts 354°
2026-05-05 15:49 42.25867 -79.35370 26880 ft 381 kts 355°
2026-05-05 15:49 42.28509 -79.35186 26494 ft 379 kts 355°
2026-05-05 15:49 42.31129 -79.34989 26131 ft 376 kts 355°
2026-05-05 15:49 42.33738 -79.34785 25767 ft 374 kts 355°
2026-05-05 15:50 42.36345 -79.34578 25391 ft 372 kts 355°
2026-05-05 15:50 42.38922 -79.34371 25029 ft 370 kts 355°
2026-05-05 15:50 42.41486 -79.34164 24673 ft 368 kts 355°
2026-05-05 15:50 42.44038 -79.33959 24301 ft 367 kts 355°
2026-05-05 15:51 42.46584 -79.33754 23954 ft 366 kts 356°
2026-05-05 15:51 42.49119 -79.33550 23590 ft 365 kts 356°
2026-05-05 15:51 42.51623 -79.33349 23206 ft 364 kts 356°
2026-05-05 15:51 42.54152 -79.33145 22805 ft 363 kts 355°
2026-05-05 15:52 42.56673 -79.32941 22399 ft 362 kts 355°
2026-05-05 15:52 42.59176 -79.32738 22022 ft 360 kts 355°
2026-05-05 15:52 42.61670 -79.32536 21650 ft 358 kts 355°
2026-05-05 15:52 42.64152 -79.32335 21241 ft 357 kts 355°
2026-05-05 15:53 42.66633 -79.32134 20847 ft 357 kts 356°
2026-05-05 15:53 42.69110 -79.31933 20480 ft 356 kts 356°
2026-05-05 15:53 42.71578 -79.31732 20120 ft 355 kts 356°
2026-05-05 15:53 42.74035 -79.31532 19780 ft 354 kts 356°
2026-05-05 15:54 42.76491 -79.31332 19415 ft 353 kts 356°
2026-05-05 15:54 42.78947 -79.31132 19048 ft 352 kts 356°
2026-05-05 15:54 42.81393 -79.30932 18688 ft 352 kts 356°
2026-05-05 15:54 42.83836 -79.30758 18325 ft 350 kts 353°
2026-05-05 15:55 42.86232 -79.30863 17884 ft 348 kts 349°
2026-05-05 15:55 42.88638 -79.31126 17492 ft 346 kts 347°
2026-05-05 15:55 42.91033 -79.31422 17122 ft 344 kts 347°
2026-05-05 15:55 42.93418 -79.31710 16783 ft 343 kts 347°
2026-05-05 15:56 42.95793 -79.31981 16423 ft 341 kts 347°
2026-05-05 15:56 42.98158 -79.32238 16083 ft 340 kts 348°
2026-05-05 15:56 43.00510 -79.32484 15744 ft 338 kts 348°
2026-05-05 15:56 43.02827 -79.32717 15615 ft 330 kts 348°
2026-05-05 15:57 43.05116 -79.32947 15324 ft 328 kts 348°
2026-05-05 15:57 43.07378 -79.33175 15012 ft 326 kts 348°
2026-05-05 15:57 43.09641 -79.33403 14694 ft 325 kts 348°
2026-05-05 15:57 43.11893 -79.33630 14371 ft 324 kts 348°
2026-05-05 15:58 43.14140 -79.33857 14069 ft 323 kts 347°
2026-05-05 15:58 43.16361 -79.34081 13719 ft 324 kts 347°
2026-05-05 15:58 43.18605 -79.34306 13382 ft 323 kts 348°
2026-05-05 15:58 43.20852 -79.34532 13022 ft 323 kts 348°
2026-05-05 15:59 43.23095 -79.34757 12693 ft 322 kts 348°
2026-05-05 15:59 43.25334 -79.34982 12355 ft 322 kts 348°
2026-05-05 15:59 43.27575 -79.35207 12010 ft 321 kts 348°
2026-05-05 15:59 43.29792 -79.35451 11690 ft 317 kts 344°
2026-05-05 16:00 43.31824 -79.36343 11364 ft 300 kts 325°
2026-05-05 16:00 43.33682 -79.37598 11205 ft 294 kts 325°
2026-05-05 16:00 43.35482 -79.38779 11077 ft 287 kts 325°
2026-05-05 16:00 43.37274 -79.39947 10814 ft 286 kts 325°
2026-05-05 16:01 43.39085 -79.41122 10542 ft 290 kts 326°
2026-05-05 16:01 43.40918 -79.42306 10244 ft 290 kts 326°
2026-05-05 16:01 43.42747 -79.43483 9965 ft 289 kts 326°
2026-05-05 16:01 43.44539 -79.44631 9890 ft 280 kts 325°
2026-05-05 16:02 43.46297 -79.45762 9668 ft 277 kts 325°
2026-05-05 16:02 43.48038 -79.46885 9467 ft 274 kts 325°
2026-05-05 16:02 43.49743 -79.47983 9351 ft 266 kts 325°
2026-05-05 16:02 43.51392 -79.49043 9261 ft 257 kts 324°
2026-05-05 16:03 43.52986 -79.50070 9173 ft 249 kts 324°
2026-05-05 16:03 43.54532 -79.51067 9035 ft 242 kts 324°
2026-05-05 16:03 43.56051 -79.52048 8824 ft 240 kts 323°
2026-05-05 16:03 43.57524 -79.52992 8633 ft 234 kts 323°
2026-05-05 16:04 43.59131 -79.53616 8179 ft 257 kts 352°
2026-05-05 16:04 43.60871 -79.52810 7817 ft 276 kts 33°
2026-05-05 16:04 43.62233 -79.50944 7489 ft 274 kts 45°
2026-05-05 16:04 43.63507 -79.48992 7073 ft 272 kts 45°
2026-05-05 16:05 43.64777 -79.47054 6630 ft 273 kts 45°
2026-05-05 16:05 43.66046 -79.45142 6293 ft 266 kts 44°
2026-05-05 16:05 43.67300 -79.43280 5862 ft 263 kts 43°
2026-05-05 16:05 43.68543 -79.41451 5417 ft 261 kts 43°
2026-05-05 16:06 43.69781 -79.39635 5056 ft 260 kts 43°
2026-05-05 16:06 43.71024 -79.37816 5009 ft 262 kts 43°
2026-05-05 16:06 43.72285 -79.35971 4810 ft 265 kts 43°
2026-05-05 16:06 43.73543 -79.34129 4634 ft 262 kts 44°
2026-05-05 16:07 43.74780 -79.32315 4399 ft 255 kts 44°
2026-05-05 16:07 43.75984 -79.30555 4199 ft 248 kts 42°
2026-05-05 16:07 43.77357 -79.29305 4025 ft 226 kts 10°
2026-05-05 16:07 43.78800 -79.29289 4004 ft 205 kts 334°
2026-05-05 16:08 43.80024 -79.30186 3917 ft 199 kts 321°
2026-05-05 16:08 43.81196 -79.31236 3714 ft 199 kts 320°
2026-05-05 16:08 43.82343 -79.32297 3499 ft 196 kts 318°
2026-05-05 16:08 43.83176 -79.33675 3279 ft 183 kts 285°
2026-05-05 16:09 43.83174 -79.35381 3118 ft 180 kts 253°
2026-05-05 16:09 43.82751 -79.37029 3051 ft 183 kts 248°
2026-05-05 16:09 43.82079 -79.38468 3003 ft 174 kts 232°
2026-05-05 16:09 43.81302 -79.39677 2968 ft 163 kts 230°
2026-05-05 16:10 43.80532 -79.40822 2996 ft 163 kts 230°
2026-05-05 16:10 43.79751 -79.41967 2999 ft 164 kts 229°
2026-05-05 16:10 43.78959 -79.43123 3018 ft 168 kts 230°
2026-05-05 16:10 43.78158 -79.44285 3018 ft 170 kts 229°
2026-05-05 16:11 43.77344 -79.45467 3013 ft 167 kts 229°
2026-05-05 16:11 43.74964 -79.48926 2733 ft 169 kts 229°
2026-05-05 16:12 43.74158 -79.50089 2498 ft 163 kts 230°
2026-05-05 16:12 43.72690 -79.52221 2107 ft 148 kts 230°
2026-05-05 16:13 43.70587 -79.55278 1555 ft 147 kts 230°
2026-05-05 16:13 43.69881 -79.56312 1327 ft 148 kts 230°
2026-05-05 16:13 43.69148 -79.57337 1085 ft 150 kts 230°
2026-05-05 16:14 43.67740 -79.59412 663 ft 147 kts 231°
2026-05-05 16:14 43.66567 -79.61115 564 ft 69 kts 226°